Regional Weather Roundup
Issued by NWS

Home | Current Version | Previous Version | Graphics & Text | Print | Product List | Glossary On
Versions: 1 2 3 4 5 6 7 8 9 10 11 12 13 14 15 16 17 18 19 20 21 22 23 24 25 26 27 28 29 30 31 32 33 34 35 36 37 38 39 40 41 42 43 44 45 46 47 48 49 50
006
ASUS43 KFSD 210902
RWRSD

WEATHER ROUNDUP FOR SOUTH DAKOTA
NATIONAL WEATHER SERVICE SIOUX FALLS SD
300 AM CST SUN JAN 21 2018

NOTE: "FAIR" INDICATES FEW OR NO CLOUDS BELOW 12,000 FEET WITH NO
SIGNIFICANT WEATHER AND/OR OBSTRUCTIONS TO VISIBILITY.


SDZ001>005-009-010-012>017-211000-
NORTHWEST AND NORTH CENTRAL SOUTH DAKOTA

CITY           SKY/WX    TMP DP  RH WIND       PRES   REMARKS
BUFFALO          N/A     27  20  75 W6        29.91R WCI  20
FAITH            N/A     30  26  85 NW8       29.97R WCI  22
MOBRIDGE       MOCLDY    28  24  85 N8        29.94S WCI  20
$$

SDZ012>016-024>037-041>051-057-063-072>074-211000-
SOUTHWEST AND SOUTH CENTRAL SOUTH DAKOTA

CITY           SKY/WX    TMP DP  RH WIND       PRES   REMARKS
RAPID CTY ARPT LGT SNOW  30  27  88 W6        29.99R FOG     WCI  24
PIERRE         CLOUDY    33  32  96 NW6       29.97S WCI  28
CUSTER         LGT SNOW  22  18  85 NE8       29.89R VSB 1   WCI  12
ELLSWORTH AFB  CLOUDY    30  30 100 W6        29.98R WCI  24
PHILIP         CLOUDY    32  32 100 CALM      29.99R
PINE RIDGE     LGT SNOW  31  29  92 NE9       29.94S FOG     WCI  23
SPEARFISH        N/A     28  25  86 W3        29.97S
WINNER         CLOUDY    36  31  82 N16       29.95S
$$

SDZ004>011-016>023-039-040-211000-
NORTHEAST SOUTH DAKOTA

CITY           SKY/WX    TMP DP  RH WIND       PRES   REMARKS
ABERDEEN       CLOUDY    32  27  81 CALM      29.98R
WATERTOWN      CLOUDY    32  29  88 N6        29.94R WCI  26
BROOKINGS      CLOUDY    35  29  78 N5        29.94S
SISSETON         N/A     33  27  78 NW6       29.95S WCI  28
$$

SDZ017-020-022-023-036>040-048>070-211000-
SOUTHEAST SOUTH DAKOTA

CITY           SKY/WX    TMP DP  RH WIND       PRES   REMARKS
SIOUX FALLS    CLOUDY    31  28  89 NE8       29.92S WCI  23
HURON          CLOUDY    36  31  82 N9        29.96R
CHAMBERLAIN    CLOUDY    38  33  81 NW13      29.95F
MITCHELL       CLOUDY    36  33  89 N7        29.95S
YANKTON        CLOUDY    32  28  85 N8        29.91F WCI  25
$$

ABBREVIATIONS USED IN REMARKS
   TC - TEMPERATURE IN CELSIUS
  WCI - WIND CHILL INDEX
   HX - HEAT INDEX
  VSB - VISIBILITY





USA.gov is the U.S. government's official web portal to all federal, state and local government web resources and services.